TimeCST,TemperatureF,Dew PointF,Humidity,Sea Level PressureIn,VisibilityMPH,Wind Direction,Wind SpeedMPH,Gust SpeedMPH,PrecipitationIn,Events,Conditions,WindDirDegrees,DateUTC
12:15 AM,51.3,43.9,76,30.06,10.0,ESE,6.9,-,N/A,,Clear,110,2013-02-15 06:15:00
12:35 AM,51.3,44.4,77,30.06,10.0,ESE,6.9,-,N/A,,Clear,110,2013-02-15 06:35:00
12:55 AM,51.8,45.1,78,30.06,10.0,ESE,8.1,-,N/A,,Clear,110,2013-02-15 06:55:00
1:15 AM,53.4,46.8,78,30.06,10.0,East,9.2,-,N/A,,Clear,100,2013-02-15 07:15:00
1:35 AM,52.9,46.2,78,30.07,10.0,ESE,5.8,-,N/A,,Clear,110,2013-02-15 07:35:00
1:55 AM,52.5,46.4,80,30.08,10.0,ESE,4.6,-,N/A,,Clear,110,2013-02-15 07:55:00
2:15 AM,51.3,46.0,82,30.08,10.0,Calm,Calm,-,N/A,,Clear,0,2013-02-15 08:15:00
2:35 AM,50.9,46.0,83,30.07,10.0,ENE,4.6,-,N/A,,Clear,70,2013-02-15 08:35:00
2:55 AM,51.4,46.6,83,30.07,10.0,East,5.8,-,N/A,,Clear,80,2013-02-15 08:55:00
3:15 AM,52.9,47.5,82,30.07,10.0,ENE,6.9,-,N/A,,Clear,70,2013-02-15 09:15:00
3:35 AM,53.8,47.5,79,30.07,10.0,ENE,5.8,-,N/A,,Clear,60,2013-02-15 09:35:00
3:55 AM,53.6,48.0,81,30.08,10.0,ENE,8.1,-,N/A,,Clear,70,2013-02-15 09:55:00
4:15 AM,52.9,47.7,82,30.08,10.0,East,6.9,-,N/A,,Clear,80,2013-02-15 10:15:00
4:35 AM,53.8,48.2,81,30.08,10.0,East,6.9,-,N/A,,Clear,80,2013-02-15 10:35:00
4:55 AM,53.1,46.8,79,30.08,10.0,East,4.6,-,N/A,,Clear,80,2013-02-15 10:55:00
5:15 AM,47.7,43.0,84,30.09,10.0,NNE,3.5,-,N/A,,Clear,20,2013-02-15 11:15:00
5:35 AM,46.0,42.4,87,30.10,10.0,Calm,Calm,-,N/A,,Clear,0,2013-02-15 11:35:00
5:55 AM,45.7,42.1,87,30.10,10.0,NNE,3.5,-,N/A,,Clear,20,2013-02-15 11:55:00
6:15 AM,45.9,42.4,88,30.11,10.0,Calm,Calm,-,N/A,,Clear,0,2013-02-15 12:15:00
6:35 AM,45.5,41.9,87,30.11,10.0,North,3.5,-,N/A,,Clear,10,2013-02-15 12:35:00
6:55 AM,45.0,41.7,88,30.12,10.0,North,3.5,-,N/A,,Clear,360,2013-02-15 12:55:00
7:15 AM,44.4,41.4,89,30.13,10.0,North,4.6,-,N/A,,Clear,350,2013-02-15 13:15:00
7:35 AM,45.3,42.6,90,30.13,10.0,North,4.6,-,N/A,,Clear,350,2013-02-15 13:35:00
7:55 AM,48.0,44.8,89,30.14,10.0,NNW,3.5,-,N/A,,Clear,340,2013-02-15 13:55:00
8:15 AM,51.3,46.4,83,30.15,10.0,WNW,4.6,-,N/A,,Clear,300,2013-02-15 14:15:00
8:35 AM,54.1,47.5,78,30.16,10.0,NW,3.5,-,N/A,,Clear,310,2013-02-15 14:35:00
8:55 AM,57.2,49.5,75,30.17,10.0,North,3.5,-,N/A,,Clear,360,2013-02-15 14:55:00
9:15 AM,61.0,50.9,69,30.17,10.0,Calm,Calm,-,N/A,,Clear,0,2013-02-15 15:15:00
9:35 AM,64.9,51.3,61,30.17,10.0,ESE,3.5,-,N/A,,Clear,120,2013-02-15 15:35:00
9:55 AM,67.5,51.1,56,30.17,10.0,SE,4.6,-,N/A,,Clear,130,2013-02-15 15:55:00
10:15 AM,68.2,50.7,54,30.18,10.0,East,4.6,-,N/A,,Clear,80,2013-02-15 16:15:00
10:35 AM,69.3,49.3,49,30.18,10.0,East,4.6,-,N/A,,Clear,90,2013-02-15 16:35:00
10:55 AM,70.7,48.0,44,30.18,10.0,East,6.9,-,N/A,,Clear,100,2013-02-15 16:55:00
11:15 AM,71.6,47.3,42,30.18,10.0,East,8.1,-,N/A,,Clear,80,2013-02-15 17:15:00
11:35 AM,72.1,45.7,39,30.17,10.0,ESE,5.8,-,N/A,,Clear,110,2013-02-15 17:35:00
11:55 AM,72.0,49.5,45,30.16,10.0,NE,8.1,-,N/A,,Clear,40,2013-02-15 17:55:00
12:15 PM,72.7,47.8,41,30.16,10.0,East,10.4,-,N/A,,Clear,90,2013-02-15 18:15:00
12:35 PM,73.0,47.7,40,30.15,10.0,ENE,12.7,-,N/A,,Clear,70,2013-02-15 18:35:00
12:55 PM,73.6,45.1,36,30.14,10.0,NNE,9.2,-,N/A,,Clear,20,2013-02-15 18:55:00
1:15 PM,75.2,48.7,39,30.13,10.0,ENE,15.0,-,N/A,,Clear,70,2013-02-15 19:15:00
1:35 PM,73.4,49.1,42,30.13,10.0,ENE,16.1,-,N/A,,Scattered Clouds,60,2013-02-15 19:35:00
1:55 PM,73.6,48.6,41,30.12,10.0,ENE,13.8,24.2,N/A,,Scattered Clouds,70,2013-02-15 19:55:00
2:15 PM,73.4,43.7,34,30.12,10.0,ENE,13.8,23.0,N/A,,Scattered Clouds,60,2013-02-15 20:15:00
2:35 PM,73.9,46.0,37,30.11,10.0,East,15.0,23.0,N/A,,Clear,80,2013-02-15 20:35:00
2:55 PM,73.9,46.6,38,30.11,10.0,NE,15.0,23.0,N/A,,Clear,50,2013-02-15 20:55:00
3:15 PM,73.4,47.5,40,30.11,10.0,East,16.1,-,N/A,,Clear,80,2013-02-15 21:15:00
3:35 PM,72.7,48.6,42,30.11,10.0,East,16.1,25.3,N/A,,Clear,100,2013-02-15 21:35:00
3:55 PM,72.5,49.8,45,30.10,10.0,East,18.4,24.2,N/A,,Scattered Clouds,100,2013-02-15 21:55:00
4:15 PM,71.6,49.8,46,30.11,10.0,East,19.6,-,N/A,,Scattered Clouds,100,2013-02-15 22:15:00
4:35 PM,70.9,49.3,46,30.12,10.0,East,16.1,21.9,N/A,,Clear,90,2013-02-15 22:35:00
4:55 PM,69.8,49.8,49,30.12,10.0,East,17.3,-,N/A,,Clear,90,2013-02-15 22:55:00
5:15 PM,68.5,49.1,50,30.13,10.0,ESE,16.1,-,N/A,,Clear,110,2013-02-15 23:15:00
5:35 PM,67.6,48.6,50,30.13,10.0,East,16.1,-,N/A,,Clear,100,2013-02-15 23:35:00
5:55 PM,66.6,46.2,48,30.14,10.0,East,16.1,-,N/A,,Clear,90,2013-02-15 23:55:00
6:15 PM,65.5,42.6,43,30.15,10.0,East,12.7,-,N/A,,Clear,100,2013-02-16 00:15:00
6:35 PM,64.4,40.5,41,30.15,10.0,East,10.4,-,N/A,,Clear,90,2013-02-16 00:35:00
6:55 PM,63.1,40.5,43,30.16,10.0,East,9.2,-,N/A,,Clear,100,2013-02-16 00:55:00
7:15 PM,62.2,40.6,45,30.17,10.0,East,8.1,-,N/A,,Clear,100,2013-02-16 01:15:00
7:35 PM,61.0,40.6,47,30.18,10.0,ESE,6.9,-,N/A,,Clear,110,2013-02-16 01:35:00
7:55 PM,59.9,41.0,50,30.19,10.0,ESE,6.9,-,N/A,,Clear,110,2013-02-16 01:55:00
8:15 PM,59.2,41.2,51,30.20,10.0,East,5.8,-,N/A,,Clear,100,2013-02-16 02:15:00
8:35 PM,59.0,43.0,55,30.22,10.0,East,4.6,-,N/A,,Clear,90,2013-02-16 02:35:00
8:55 PM,58.1,42.8,57,30.23,10.0,ESE,3.5,-,N/A,,Clear,110,2013-02-16 02:55:00
9:15 PM,58.3,43.7,58,30.24,10.0,Calm,Calm,-,N/A,,Mostly Cloudy,0,2013-02-16 03:15:00
9:35 PM,59.5,45.1,59,30.25,10.0,Calm,Calm,-,N/A,,Overcast,0,2013-02-16 03:35:00
9:55 PM,58.6,44.6,60,30.27,10.0,NNW,10.4,16.1,N/A,,Overcast,340,2013-02-16 03:55:00
10:15 PM,59.9,43.5,55,30.28,10.0,North,18.4,-,N/A,,Mostly Cloudy,10,2013-02-16 04:15:00
10:35 PM,58.5,42.3,55,30.30,10.0,NNE,17.3,24.2,N/A,,Mostly Cloudy,20,2013-02-16 04:35:00
10:55 PM,58.1,41.5,54,30.31,10.0,NNE,17.3,24.2,N/A,,Overcast,20,2013-02-16 04:55:00
11:15 PM,57.6,41.4,55,30.32,10.0,NNE,18.4,24.2,N/A,,Overcast,20,2013-02-16 05:15:00
11:35 PM,57.0,41.2,55,30.32,10.0,NNE,12.7,21.9,N/A,,Scattered Clouds,20,2013-02-16 05:35:00
11:55 PM,56.5,41.2,57,30.33,10.0,North,12.7,17.3,N/A,,Mostly Cloudy,10,2013-02-16 05:55:00